Time,TemperatureF,DewpointF,PressureIn,WindDirection,WindDirectionDegrees,WindSpeedMPH,WindSpeedGustMPH,Humidity,HourlyPrecipIn,Conditions,Clouds,dailyrainin,SolarRadiationWatts/m^2,SoftwareType,DateUTC
2013-08-02 09:22:00,57.0,49.2,29.86,East,92,20.0,22.0,75,0.00,,,0.11,0,Wunderground v.1.15,2013-08-02 15:22:00,
2013-08-02 09:26:00,57.0,49.2,29.86,East,88,20.0,22.0,75,0.00,,,0.11,0,Wunderground v.1.15,2013-08-02 15:26:00,
2013-08-02 09:28:00,57.1,49.2,29.86,East,83,20.0,22.0,75,0.00,,,0.11,0,Wunderground v.1.15,2013-08-02 15:28:00,
2013-08-02 09:34:00,57.4,48.8,29.86,ESE,110,19.0,20.0,73,0.00,,,0.11,0,Wunderground v.1.15,2013-08-02 15:34:00,
2013-08-02 09:39:00,57.5,47.8,29.85,East,91,20.0,22.0,70,0.00,,,0.11,0,Wunderground v.1.15,2013-08-02 15:39:00,
2013-08-02 09:46:00,57.7,49.1,29.85,East,93,22.0,22.0,73,0.00,,,0.11,0,Wunderground v.1.15,2013-08-02 15:46:00,
2013-08-02 09:52:00,57.9,48.6,29.86,East,83,22.0,22.0,71,0.00,,,0.11,0,Wunderground v.1.15,2013-08-02 15:52:00,
2013-08-02 09:58:00,58.2,48.8,29.86,East,80,20.0,22.0,71,0.00,,,0.11,0,Wunderground v.1.15,2013-08-02 15:58:00,
2013-08-02 10:04:00,58.6,49.2,29.87,East,83,19.0,19.0,71,0.00,,,0.11,0,Wunderground v.1.15,2013-08-02 16:04:00,
2013-08-02 10:10:00,59.0,48.8,29.87,ENE,73,19.0,19.0,69,0.00,,,0.11,0,Wunderground v.1.15,2013-08-02 16:10:00,
2013-08-02 10:16:00,59.3,49.5,29.86,East,87,19.0,22.0,70,0.00,,,0.11,0,Wunderground v.1.15,2013-08-02 16:16:00,
2013-08-02 10:22:00,59.5,50.1,29.86,East,85,19.0,19.0,71,0.00,,,0.11,0,Wunderground v.1.15,2013-08-02 16:22:00,
2013-08-02 10:30:00,59.6,49.4,29.87,ENE,75,17.0,17.0,69,0.00,,,0.11,0,Wunderground v.1.15,2013-08-02 16:30:00,
2013-08-02 10:36:00,59.6,49.0,29.86,ENE,71,17.0,17.0,68,0.00,,,0.11,0,Wunderground v.1.15,2013-08-02 16:36:00,
2013-08-02 10:42:00,59.9,48.9,29.86,ENE,75,17.0,18.0,67,0.00,,,0.11,0,Wunderground v.1.15,2013-08-02 16:42:00,
2013-08-02 10:48:00,60.5,50.3,29.86,East,87,15.0,18.0,69,0.00,,,0.11,0,Wunderground v.1.15,2013-08-02 16:48:00,
2013-08-02 10:54:00,61.1,49.2,29.84,East,96,14.0,19.0,65,0.00,,,0.11,0,Wunderground v.1.15,2013-08-02 16:54:00,
2013-08-02 11:00:00,61.4,49.5,29.86,East,99,15.0,24.0,65,0.00,,,0.11,0,Wunderground v.1.15,2013-08-02 17:00:00,
2013-08-02 11:06:00,61.7,49.0,29.86,East,87,16.0,24.0,63,0.00,,,0.11,0,Wunderground v.1.15,2013-08-02 17:06:00,
2013-08-02 11:12:00,61.7,48.1,29.86,ESE,111,17.0,24.0,61,0.00,,,0.11,0,Wunderground v.1.15,2013-08-02 17:12:00,
2013-08-02 11:18:00,62.4,47.9,29.84,East,91,16.0,24.0,59,0.00,,,0.11,0,Wunderground v.1.15,2013-08-02 17:18:00,
2013-08-02 11:24:00,62.6,47.6,29.86,East,91,13.0,24.0,58,0.00,,,0.11,0,Wunderground v.1.15,2013-08-02 17:24:00,
2013-08-02 11:30:00,62.9,47.0,29.86,ESE,104,11.0,24.0,56,0.00,,,0.11,0,Wunderground v.1.15,2013-08-02 17:30:00,
2013-08-02 11:36:00,63.2,47.7,29.86,East,94,10.0,24.0,57,0.00,,,0.11,0,Wunderground v.1.15,2013-08-02 17:36:00,
2013-08-02 11:44:00,63.7,48.6,29.85,ESE,106,13.0,24.0,58,0.00,,,0.11,0,Wunderground v.1.15,2013-08-02 17:44:00,
2013-08-02 11:50:00,63.7,48.6,29.86,ESE,112,14.0,14.0,58,0.00,,,0.11,0,Wunderground v.1.15,2013-08-02 17:50:00,
2013-08-02 11:56:00,63.8,49.2,29.86,ESE,105,15.0,24.0,59,0.00,,,0.11,0,Wunderground v.1.15,2013-08-02 17:56:00,
2013-08-02 12:02:00,63.8,47.3,29.85,SE,133,16.0,24.0,55,0.00,,,0.11,0,Wunderground v.1.15,2013-08-02 18:02:00,
2013-08-02 12:08:00,63.8,46.3,29.87,ESE,114,15.0,24.0,53,0.00,,,0.11,0,Wunderground v.1.15,2013-08-02 18:08:00,
2013-08-02 12:16:00,64.3,46.8,29.87,ESE,107,12.0,24.0,53,0.00,,,0.11,0,Wunderground v.1.15,2013-08-02 18:16:00,
2013-08-02 12:22:00,64.8,45.7,29.85,ESE,118,10.0,24.0,50,0.00,,,0.11,0,Wunderground v.1.15,2013-08-02 18:22:00,
2013-08-02 12:28:00,65.1,46.0,29.85,ESE,117,9.0,24.0,50,0.00,,,0.11,0,Wunderground v.1.15,2013-08-02 18:28:00,
2013-08-02 12:34:00,64.9,46.3,29.85,East,96,9.0,24.0,51,0.00,,,0.11,0,Wunderground v.1.15,2013-08-02 18:34:00,
2013-08-02 12:42:00,65.4,47.8,29.87,SE,129,5.0,24.0,53,0.00,,,0.11,0,Wunderground v.1.15,2013-08-02 18:42:00,
2013-08-02 12:48:00,65.1,49.0,29.85,West,262,6.0,24.0,56,0.00,,,0.11,0,Wunderground v.1.15,2013-08-02 18:48:00,
2013-08-02 12:54:00,64.4,48.4,29.85,WSW,239,11.0,24.0,56,0.00,,,0.11,0,Wunderground v.1.15,2013-08-02 18:54:00,
2013-08-02 13:00:00,63.8,51.4,29.85,West,267,12.0,24.0,64,0.00,,,0.11,0,Wunderground v.1.15,2013-08-02 19:00:00,
2013-08-02 13:06:00,63.0,49.8,29.87,WSW,251,12.0,24.0,62,0.00,,,0.12,0,Wunderground v.1.15,2013-08-02 19:06:00,
2013-08-02 13:12:00,61.7,49.0,29.86,WSW,237,13.0,24.0,63,0.30,,,0.18,0,Wunderground v.1.15,2013-08-02 19:12:00,
2013-08-02 13:18:00,61.2,47.2,29.87,WSW,247,12.0,24.0,60,0.08,,,0.18,0,Wunderground v.1.15,2013-08-02 19:18:00,
2013-08-02 13:24:00,61.3,50.6,29.85,WNW,285,9.0,24.0,68,0.04,,,0.18,0,Wunderground v.1.15,2013-08-02 19:24:00,
2013-08-02 13:30:00,61.2,48.9,29.88,West,260,9.0,24.0,64,0.00,,,0.18,0,Wunderground v.1.15,2013-08-02 19:30:00,
2013-08-02 13:38:00,61.3,50.2,29.86,WNW,291,9.0,24.0,67,0.00,,,0.18,0,Wunderground v.1.15,2013-08-02 19:38:00,
2013-08-02 13:46:00,61.1,51.2,29.88,NW,311,8.0,24.0,70,0.00,,,0.19,0,Wunderground v.1.15,2013-08-02 19:46:00,
2013-08-02 13:52:00,61.2,50.2,29.88,NW,309,8.0,24.0,67,0.00,,,0.19,0,Wunderground v.1.15,2013-08-02 19:52:00,
2013-08-02 13:58:00,61.9,50.4,29.85,WNW,300,8.0,24.0,66,0.00,,,0.19,0,Wunderground v.1.15,2013-08-02 19:58:00,
2013-08-02 14:04:00,62.5,49.3,29.87,WNW,293,8.0,24.0,62,0.00,,,0.19,0,Wunderground v.1.15,2013-08-02 20:04:00,
2013-08-02 14:10:00,62.9,48.3,29.87,WNW,297,6.0,6.0,59,0.00,,,0.19,0,Wunderground v.1.15,2013-08-02 20:10:00,
2013-08-02 14:15:00,63.4,47.9,29.86,West,269,5.0,24.0,57,0.00,,,0.19,0,Wunderground v.1.15,2013-08-02 20:15:00,
2013-08-02 14:22:00,63.8,49.6,29.88,West,275,8.0,24.0,60,0.00,,,0.19,0,Wunderground v.1.15,2013-08-02 20:22:00,
2013-08-02 14:28:00,64.0,51.6,29.85,WNW,292,10.0,24.0,64,0.00,,,0.19,0,Wunderground v.1.15,2013-08-02 20:28:00,
2013-08-02 14:34:00,64.4,47.4,29.85,WNW,293,11.0,24.0,54,0.00,,,0.19,0,Wunderground v.1.15,2013-08-02 20:34:00,
2013-08-02 14:40:00,64.9,50.2,29.87,NW,326,10.0,10.0,59,0.00,,,0.19,0,Wunderground v.1.15,2013-08-02 20:40:00,
2013-08-02 14:46:00,65.3,47.7,29.85,WSW,250,8.0,24.0,53,0.00,,,0.19,0,Wunderground v.1.15,2013-08-02 20:46:00,
2013-08-02 14:52:00,64.9,46.3,29.85,WSW,247,9.0,24.0,51,0.00,,,0.19,0,Wunderground v.1.15,2013-08-02 20:52:00,
2013-08-02 14:58:00,64.5,48.0,29.87,SW,235,9.0,24.0,55,0.00,,,0.19,0,Wunderground v.1.15,2013-08-02 20:58:00,
2013-08-02 15:04:00,63.7,49.5,29.87,SW,218,10.0,14.0,60,0.00,,,0.19,0,Wunderground v.1.15,2013-08-02 21:04:00,
2013-08-02 15:14:00,62.3,49.1,29.88,WSW,237,7.0,14.0,62,0.11,,,0.23,0,Wunderground v.1.15,2013-08-02 21:14:00,
2013-08-02 15:20:00,62.1,47.1,29.86,WSW,257,8.0,14.0,58,0.05,,,0.23,0,Wunderground v.1.15,2013-08-02 21:20:00,
2013-08-02 15:26:00,62.5,49.3,29.86,West,280,9.0,14.0,62,0.00,,,0.23,0,Wunderground v.1.15,2013-08-02 21:26:00,
2013-08-02 15:32:00,62.7,49.1,29.88,WNW,298,10.0,14.0,61,0.00,,,0.24,0,Wunderground v.1.15,2013-08-02 21:32:00,
2013-08-02 15:40:00,63.1,49.4,29.86,WNW,302,8.0,8.0,61,0.00,,,0.24,0,Wunderground v.1.15,2013-08-02 21:40:00,
2013-08-02 15:46:00,63.6,47.6,29.88,West,275,6.0,14.0,56,0.00,,,0.24,0,Wunderground v.1.15,2013-08-02 21:46:00,
2013-08-02 15:52:00,64.3,47.3,29.86,SW,236,6.0,14.0,54,0.00,,,0.24,0,Wunderground v.1.15,2013-08-02 21:52:00,
2013-08-02 15:58:00,64.9,47.4,29.86,West,262,8.0,14.0,53,0.00,,,0.24,0,Wunderground v.1.15,2013-08-02 21:58:00,
2013-08-02 16:04:00,64.3,49.2,29.86,WSW,249,11.0,14.0,58,0.00,,,0.24,0,Wunderground v.1.15,2013-08-02 22:04:00,
2013-08-02 16:10:00,64.0,50.7,29.88,WSW,247,11.0,14.0,62,0.00,,,0.24,0,Wunderground v.1.15,2013-08-02 22:10:00,
2013-08-02 16:16:00,63.8,51.4,29.87,WSW,243,12.0,14.0,64,0.00,,,0.24,0,Wunderground v.1.15,2013-08-02 22:16:00,
2013-08-02 16:21:00,63.9,51.5,29.88,SW,224,12.0,14.0,64,0.00,,,0.24,0,Wunderground v.1.15,2013-08-02 22:21:00,
2013-08-02 16:28:00,63.6,51.6,29.88,WSW,241,14.0,17.0,65,0.00,,,0.24,0,Wunderground v.1.15,2013-08-02 22:28:00,
2013-08-02 16:34:00,63.0,52.7,29.88,West,280,16.0,21.0,69,0.00,,,0.24,0,Wunderground v.1.15,2013-08-02 22:34:00,
2013-08-02 16:40:00,62.6,52.7,29.87,WNW,293,17.0,17.0,70,0.00,,,0.24,0,Wunderground v.1.15,2013-08-02 22:40:00,
2013-08-02 16:46:00,62.6,53.1,29.87,WNW,285,15.0,17.0,71,0.00,,,0.24,0,Wunderground v.1.15,2013-08-02 22:46:00,
2013-08-02 16:52:00,63.1,51.1,29.88,WNW,285,16.0,16.0,65,0.00,,,0.24,0,Wunderground v.1.15,2013-08-02 22:52:00,
2013-08-02 16:58:00,63.7,50.0,29.87,West,275,16.0,16.0,61,0.00,,,0.24,0,Wunderground v.1.15,2013-08-02 22:58:00,
2013-08-02 17:03:00,64.0,50.7,29.89,WSW,256,14.0,15.0,62,0.00,,,0.24,0,Wunderground v.1.15,2013-08-02 23:03:00,
2013-08-02 17:12:00,63.5,51.5,29.87,WSW,258,12.0,14.0,65,0.00,,,0.24,0,Wunderground v.1.15,2013-08-02 23:12:00,
2013-08-02 17:18:00,63.6,49.9,29.87,WSW,247,11.0,14.0,61,0.00,,,0.24,0,Wunderground v.1.15,2013-08-02 23:18:00,
2013-08-02 17:24:00,63.5,49.4,29.89,WSW,257,12.0,14.0,60,0.00,,,0.24,0,Wunderground v.1.15,2013-08-02 23:24:00,
2013-08-02 17:30:00,63.7,51.7,29.87,West,269,13.0,15.0,65,0.00,,,0.24,0,Wunderground v.1.15,2013-08-02 23:30:00,
2013-08-02 17:38:00,64.2,50.9,29.86,West,260,16.0,16.0,62,0.00,,,0.24,0,Wunderground v.1.15,2013-08-02 23:38:00,
2013-08-02 17:44:00,64.6,49.0,29.88,West,280,15.0,18.0,57,0.00,,,0.24,0,Wunderground v.1.15,2013-08-02 23:44:00,
2013-08-02 17:50:00,64.8,48.7,29.86,West,280,16.0,17.0,56,0.00,,,0.24,0,Wunderground v.1.15,2013-08-02 23:50:00,
2013-08-02 17:56:00,65.0,47.9,29.86,WNW,292,16.0,17.0,54,0.00,,,0.24,0,Wunderground v.1.15,2013-08-02 23:56:00,
2013-08-02 18:04:00,65.4,47.3,29.86,West,280,13.0,15.0,52,0.00,,,0.24,0,Wunderground v.1.15,2013-08-03 00:04:00,
2013-08-02 18:10:00,65.7,48.1,29.86,WNW,294,14.0,14.0,53,0.00,,,0.24,0,Wunderground v.1.15,2013-08-03 00:10:00,
2013-08-02 18:16:00,66.1,47.4,29.87,WNW,297,14.0,17.0,51,0.00,,,0.24,0,Wunderground v.1.15,2013-08-03 00:16:00,
2013-08-02 18:22:00,65.9,47.8,29.86,West,275,12.0,15.0,52,0.00,,,0.24,0,Wunderground v.1.15,2013-08-03 00:22:00,
2013-08-02 18:28:00,66.1,49.0,29.86,West,268,13.0,15.0,54,0.00,,,0.24,0,Wunderground v.1.15,2013-08-03 00:28:00,
2013-08-02 18:36:00,66.0,49.4,29.86,West,259,13.0,18.0,55,0.00,,,0.24,0,Wunderground v.1.15,2013-08-03 00:36:00,
2013-08-02 18:46:00,65.3,51.1,29.87,WSW,253,17.0,17.0,60,0.00,,,0.24,0,Wunderground v.1.15,2013-08-03 00:46:00,
2013-08-02 18:58:00,65.1,49.5,29.85,West,261,19.0,22.0,57,0.00,,,0.24,0,Wunderground v.1.15,2013-08-03 00:58:00,
2013-08-02 19:03:00,65.1,49.5,29.87,West,270,20.0,20.0,57,0.00,,,0.24,0,Wunderground v.1.15,2013-08-03 01:03:00,
2013-08-02 19:10:00,65.3,50.6,29.85,West,261,18.0,18.0,59,0.00,,,0.24,0,Wunderground v.1.15,2013-08-03 01:10:00,
2013-08-02 19:16:00,65.6,51.3,29.85,West,265,17.0,18.0,60,0.00,,,0.24,0,Wunderground v.1.15,2013-08-03 01:16:00,
2013-08-02 19:22:00,65.6,51.8,29.87,West,275,17.0,17.0,61,0.00,,,0.24,0,Wunderground v.1.15,2013-08-03 01:22:00,
2013-08-02 19:28:00,65.5,50.8,29.87,West,265,17.0,18.0,59,0.00,,,0.24,0,Wunderground v.1.15,2013-08-03 01:28:00,
2013-08-02 19:36:00,65.5,51.2,29.86,West,270,16.0,17.0,60,0.00,,,0.24,0,Wunderground v.1.15,2013-08-03 01:36:00,
2013-08-02 19:42:00,65.4,49.3,29.88,West,275,17.0,19.0,56,0.00,,,0.24,0,Wunderground v.1.15,2013-08-03 01:42:00,
2013-08-02 19:50:00,65.4,49.8,29.86,West,280,19.0,21.0,57,0.00,,,0.24,0,Wunderground v.1.15,2013-08-03 01:50:00,
2013-08-02 19:56:00,65.4,49.3,29.88,West,275,18.0,22.0,56,0.00,,,0.24,0,Wunderground v.1.15,2013-08-03 01:56:00,
2013-08-02 20:02:00,65.2,49.6,29.87,West,266,19.0,21.0,57,0.00,,,0.24,0,Wunderground v.1.15,2013-08-03 02:02:00,
2013-08-02 20:08:00,65.0,48.9,29.86,West,275,20.0,22.0,56,0.00,,,0.24,0,Wunderground v.1.15,2013-08-03 02:08:00,
2013-08-02 20:14:00,65.0,50.8,29.88,West,275,19.0,22.0,60,0.00,,,0.24,0,Wunderground v.1.15,2013-08-03 02:14:00,
2013-08-02 20:20:00,64.7,48.6,29.87,West,275,19.0,19.0,56,0.00,,,0.24,0,Wunderground v.1.15,2013-08-03 02:20:00,
2013-08-02 20:26:00,64.5,49.4,29.87,West,275,20.0,23.0,58,0.00,,,0.24,0,Wunderground v.1.15,2013-08-03 02:26:00,
2013-08-02 20:32:00,64.3,50.1,29.89,West,271,19.0,21.0,60,0.00,,,0.24,0,Wunderground v.1.15,2013-08-03 02:32:00,
2013-08-02 20:38:00,64.0,48.9,29.87,West,264,19.0,24.0,58,0.00,,,0.24,11,Wunderground v.1.15,2013-08-03 02:38:00,
2013-08-02 20:44:00,63.8,48.3,29.89,West,264,20.0,22.0,57,0.00,,,0.24,26,Wunderground v.1.15,2013-08-03 02:44:00,
2013-08-02 20:52:00,63.4,48.4,29.88,West,280,19.0,22.0,58,0.00,,,0.24,51,Wunderground v.1.15,2013-08-03 02:52:00,
2013-08-02 21:00:00,62.8,48.3,29.89,WNW,289,18.0,18.0,59,0.00,,,0.24,79,Wunderground v.1.15,2013-08-03 03:00:00,
2013-08-02 21:08:00,62.6,48.5,29.89,WNW,301,18.0,22.0,60,0.00,,,0.00,91,Wunderground v.1.15,2013-08-03 03:08:00,
2013-08-02 21:18:00,62.6,48.5,29.91,WNW,285,18.0,22.0,60,0.00,,,0.00,97,Wunderground v.1.15,2013-08-03 03:18:00,
2013-08-02 21:26:00,62.3,47.3,29.90,WNW,297,17.0,22.0,58,0.00,,,0.00,98,Wunderground v.1.15,2013-08-03 03:26:00,
2013-08-02 21:32:00,62.5,48.9,29.92,WNW,285,17.0,22.0,61,0.00,,,0.00,97,Wunderground v.1.15,2013-08-03 03:32:00,
2013-08-02 21:38:00,62.3,47.3,29.91,WNW,295,13.0,22.0,58,0.00,,,0.00,97,Wunderground v.1.15,2013-08-03 03:38:00,
2013-08-02 21:44:00,61.9,49.2,29.93,WNW,285,10.0,13.0,63,0.00,,,0.00,95,Wunderground v.1.15,2013-08-03 03:44:00,
2013-08-02 21:58:00,62.2,49.4,29.92,West,275,12.0,22.0,63,0.00,,,0.00,95,Wunderground v.1.15,2013-08-03 03:58:00,
2013-08-02 22:02:00,62.1,49.8,29.94,West,260,12.0,22.0,64,0.00,,,0.00,95,Wunderground v.1.15,2013-08-03 04:02:00,
2013-08-02 22:04:00,62.0,49.3,29.94,West,262,11.0,22.0,63,0.00,,,0.00,95,Wunderground v.1.15,2013-08-03 04:04:00,
2013-08-02 22:08:00,61.8,49.1,29.94,West,275,12.0,22.0,63,0.00,,,0.00,95,Wunderground v.1.15,2013-08-03 04:08:00,
2013-08-02 22:14:00,61.4,49.1,29.93,West,262,13.0,22.0,64,0.00,,,0.00,93,Wunderground v.1.15,2013-08-03 04:14:00,
2013-08-02 22:20:00,61.1,49.7,29.94,WSW,256,13.0,13.0,66,0.00,,,0.00,91,Wunderground v.1.15,2013-08-03 04:20:00,
2013-08-02 22:26:00,60.3,49.7,29.94,West,260,12.0,22.0,68,0.00,,,0.00,90,Wunderground v.1.15,2013-08-03 04:26:00,
2013-08-02 22:31:00,59.6,50.2,29.93,West,260,10.0,22.0,71,0.00,,,0.00,86,Wunderground v.1.15,2013-08-03 04:31:00,
2013-08-02 22:38:00,59.0,50.4,29.95,West,260,9.0,22.0,73,0.00,,,0.00,83,Wunderground v.1.15,2013-08-03 04:38:00,
2013-08-02 22:44:00,58.5,49.9,29.95,West,263,9.0,22.0,73,0.00,,,0.00,81,Wunderground v.1.15,2013-08-03 04:44:00,
2013-08-02 22:56:00,58.1,50.9,29.96,WSW,247,7.0,22.0,77,0.00,,,0.00,77,Wunderground v.1.15,2013-08-03 04:56:00,
2013-08-02 23:02:00,58.0,50.8,29.96,WSW,248,6.0,22.0,77,0.00,,,0.00,76,Wunderground v.1.15,2013-08-03 05:02:00,
2013-08-02 23:08:00,58.1,50.6,29.94,WSW,248,6.0,22.0,76,0.00,,,0.00,76,Wunderground v.1.15,2013-08-03 05:08:00,
2013-08-02 23:14:00,58.1,50.9,29.96,NE,48,4.0,22.0,77,0.00,,,0.00,76,Wunderground v.1.15,2013-08-03 05:14:00,
2013-08-02 23:20:00,58.3,51.8,29.96,NE,48,3.0,3.0,79,0.00,,,0.00,74,Wunderground v.1.15,2013-08-03 05:20:00,
2013-08-02 23:28:00,57.6,51.1,29.96,ESE,106,6.0,22.0,79,0.00,,,0.00,74,Wunderground v.1.15,2013-08-03 05:28:00,
2013-08-02 23:34:00,56.8,50.4,29.96,ESE,105,7.0,22.0,79,0.00,,,0.00,74,Wunderground v.1.15,2013-08-03 05:34:00,
2013-08-02 23:40:00,56.6,50.8,29.97,ESE,120,7.0,22.0,81,0.00,,,0.00,72,Wunderground v.1.15,2013-08-03 05:40:00,
2013-08-02 23:46:00,56.0,49.2,29.95,SE,125,7.0,22.0,78,0.00,,,0.00,72,Wunderground v.1.15,2013-08-03 05:46:00,
2013-08-02 23:52:00,55.8,49.4,29.97,SE,133,8.0,22.0,79,0.00,,,0.00,70,Wunderground v.1.15,2013-08-03 05:52:00,
2013-08-02 23:58:00,55.8,49.7,29.97,SE,134,7.0,22.0,80,0.00,,,0.00,70,Wunderground v.1.15,2013-08-03 05:58:00,